EUTELSAT 7B

Last updated on Tue Sep 16 2025 00:02:47 GMT+0000 (Coordinated Universal Time)

1 39163U 13022A 25258.58596263 .00000031 00000+0 00000+0 0 9998 2 39163 0.0675 352.0880 0000740 12.2467 208.3888 1.00271312 45206
UTC large
Height (km)
Speed (km/s)
/
Latitude / Longitude
Inclination (degrees)
Orbital Period (minutes)
Azimuth
Elevation
Range (km)
Doppler Factor

Next 0 passes for location: London (51.5072 / 0.1276)

Sorry there are no passes over London.